• In Uzbekistan
  • List of Countries
  • For 7 days
  • Water Temperature
  • Satellite Maps
  • Weather Map
  • Weather Widgets
  • user-avatar
    Login

    Hourly Weather Lankaran

    Today, 18 July, Thursday

    Time Temperature Precipitation Wind Pressure Humidity
    00:00 +15°C° 0 mm 0 mps 629 mmHg 64%
    01:00 +14°C° 0 mm 0 mps 629 mmHg 65%
    02:00 +14°C° 0 mm 0 mps 629 mmHg 65%
    03:00 +14°C° 0 mm 0 mps 629 mmHg 64%
    04:00 +16°C° 0 mm 1 mps 629 mmHg 62%
    05:00 +16°C° 0 mm 1 mps 630 mmHg 61%
    06:00 +18°C° 0 mm 1 mps 631 mmHg 60%
    07:00 +20°C° 0 mm 1 mps 631 mmHg 55%
    08:00 +20°C° 0 mm 2 mps 632 mmHg 50%
    09:00 +23°C° 0 mm 2 mps 632 mmHg 46%
    10:00 +25°C° 0 mm 2 mps 632 mmHg 43%
    11:00 +26°C° 0 mm 3 mps 632 mmHg 41%
    12:00 +27°C° 0 mm 4 mps 632 mmHg 38%
    13:00 +27°C° 0 mm 4 mps 632 mmHg 40%
    14:00 +27°C° 0 mm 4 mps 632 mmHg 41%
    15:00 +27°C° 0 mm 4 mps 631 mmHg 42%
    16:00 +26°C° 0 mm 3 mps 631 mmHg 46%
    17:00 +24°C° 0 mm 2 mps 631 mmHg 49%
    18:00 +23°C° 0 mm 2 mps 631 mmHg 52%
    19:00 +22°C° 0 mm 1 mps 631 mmHg 55%
    20:00 +21°C° 0 mm 1 mps 631 mmHg 58%
    21:00 +18°C° 0 mm 0 mps 630 mmHg 61%
    22:00 +18°C° 0 mm 0 mps 630 mmHg 61%
    23:00 +18°C° 0 mm 0 mps 630 mmHg 60%

    Tomorrow, 19 July, Friday

    Time Temperature Precipitation Wind Pressure Humidity
    00:00 +17°C° 0 mm 0 mps 630 mmHg 60%
    01:00 +17°C° 0 mm 0 mps 630 mmHg 61%
    02:00 +17°C° 0 mm 0 mps 630 mmHg 62%
    03:00 +16°C° 0 mm 0 mps 630 mmHg 63%
    04:00 +17°C° 0 mm 0 mps 630 mmHg 62%
    05:00 +19°C° 0 mm 1 mps 631 mmHg 60%
    06:00 +20°C° 0 mm 1 mps 632 mmHg 59%
    07:00 +22°C° 0 mm 1 mps 632 mmHg 56%
    08:00 +23°C° 0 mm 2 mps 633 mmHg 53%
    09:00 +24°C° 0 mm 3 mps 634 mmHg 50%
    10:00 +25°C° 0 mm 3 mps 634 mmHg 49%
    11:00 +26°C° 0 mm 4 mps 634 mmHg 47%
    12:00 +27°C° 0 mm 4 mps 634 mmHg 46%
    13:00 +26°C° 0 mm 4 mps 633 mmHg 46%
    14:00 +26°C° 0 mm 4 mps 633 mmHg 46%
    15:00 +26°C° 0 mm 4 mps 633 mmHg 46%
    16:00 +25°C° 0 mm 4 mps 632 mmHg 49%
    17:00 +22°C° 0 mm 4 mps 632 mmHg 52%
    18:00 +21°C° 0 mm 3 mps 632 mmHg 55%
    19:00 +20°C° 0 mm 3 mps 632 mmHg 58%
    20:00 +18°C° 0 mm 2 mps 632 mmHg 62%
    21:00 +17°C° 0 mm 2 mps 633 mmHg 65%
    22:00 +18°C° 0 mm 1 mps 633 mmHg 65%
    23:00 +18°C° 0 mm 1 mps 633 mmHg 65%

    Day after tomorrow, 20 July, Saturday

    Time Temperature Precipitation Wind Pressure Humidity
    00:00 +18°C° 0 mm 1 mps 633 mmHg 66%
    01:00 +18°C° 0 mm 1 mps 633 mmHg 66%
    02:00 +16°C° 0 mm 2 mps 633 mmHg 67%
    03:00 +16°C° 0 mm 2 mps 633 mmHg 67%
    04:00 +17°C° 0 mm 2 mps 634 mmHg 65%
    05:00 +17°C° 0 mm 2 mps 634 mmHg 62%
    06:00 +18°C° 0 mm 2 mps 635 mmHg 60%
    07:00 +20°C° 0 mm 2 mps 636 mmHg 55%
    08:00 +21°C° 0 mm 3 mps 636 mmHg 51%
    09:00 +24°C° 0 mm 3 mps 637 mmHg 46%
    10:00 +25°C° 0 mm 4 mps 637 mmHg 44%
    11:00 +25°C° 0 mm 4 mps 638 mmHg 42%
    12:00 +26°C° 0 mm 5 mps 638 mmHg 40%
    13:00 +26°C° 0 mm 5 mps 637 mmHg 41%
    14:00 +26°C° 0 mm 5 mps 637 mmHg 41%
    15:00 +25°C° 0 mm 5 mps 637 mmHg 42%
    16:00 +23°C° 0 mm 4 mps 636 mmHg 46%
    17:00 +22°C° 0 mm 4 mps 636 mmHg 50%
    18:00 +20°C° 0 mm 3 mps 636 mmHg 54%
    19:00 +19°C° 0 mm 3 mps 636 mmHg 59%
    20:00 +18°C° 0 mm 2 mps 636 mmHg 63%
    21:00 +16°C° 0 mm 2 mps 636 mmHg 68%
    22:00 +16°C° 0 mm 2 mps 636 mmHg 67%
    23:00 +16°C° 0 mm 1 mps 636 mmHg 67%

    21 July, Sunday

    Time Temperature Precipitation Wind Pressure Humidity
    00:00 +16°C° 0 mm 1 mps 636 mmHg 66%
    01:00 +16°C° 0 mm 1 mps 636 mmHg 66%
    02:00 +16°C° 0 mm 1 mps 636 mmHg 66%
    03:00 +16°C° 0 mm 1 mps 636 mmHg 67%
    04:00 +16°C° 0 mm 1 mps 636 mmHg 64%
    05:00 +18°C° 0 mm 1 mps 637 mmHg 62%
    06:00 +19°C° 0 mm 1 mps 637 mmHg 60%
    07:00 +20°C° 0 mm 2 mps 638 mmHg 54%
    08:00 +23°C° 0 mm 2 mps 638 mmHg 49%
    09:00 +24°C° 0 mm 3 mps 639 mmHg 43%
    10:00 +25°C° 0 mm 3 mps 639 mmHg 42%
    11:00 +26°C° 0 mm 4 mps 638 mmHg 40%
    12:00 +27°C° 0 mm 4 mps 638 mmHg 39%
    13:00 +27°C° 0 mm 4 mps 638 mmHg 39%
    14:00 +27°C° 0 mm 4 mps 637 mmHg 40%
    15:00 +27°C° 0 mm 4 mps 636 mmHg 40%
    16:00 +26°C° 0 mm 3 mps 636 mmHg 43%
    17:00 +25°C° 0 mm 3 mps 636 mmHg 47%
    18:00 +24°C° 0 mm 2 mps 635 mmHg 51%
    19:00 +21°C° 0 mm 2 mps 635 mmHg 54%
    20:00 +21°C° 0 mm 1 mps 635 mmHg 57%
    21:00 +17°C° 0 mm 0 mps 634 mmHg 60%
    22:00 +17°C° 0 mm 0 mps 634 mmHg 58%
    23:00 +17°C° 0 mm 0 mps 634 mmHg 57%

    22 July, Monday

    Time Temperature Precipitation Wind Pressure Humidity
    00:00 +17°C° 0 mm 0 mps 634 mmHg 56%
    01:00 +17°C° 0 mm 0 mps 634 mmHg 57%
    02:00 +16°C° 0 mm 0 mps 634 mmHg 57%
    03:00 +16°C° 0 mm 0 mps 633 mmHg 58%
    04:00 +17°C° 0 mm 0 mps 634 mmHg 57%
    05:00 +20°C° 0 mm 1 mps 634 mmHg 55%
    06:00 +21°C° 0 mm 1 mps 634 mmHg 53%
    07:00 +21°C° 0 mm 2 mps 635 mmHg 49%
    08:00 +24°C° 0 mm 2 mps 635 mmHg 44%
    09:00 +26°C° 0 mm 3 mps 636 mmHg 40%
    10:00 +27°C° 0 mm 3 mps 636 mmHg 39%
    11:00 +28°C° 0 mm 4 mps 636 mmHg 37%
    12:00 +29°C° 0 mm 4 mps 636 mmHg 36%
    13:00 +29°C° 0 mm 4 mps 635 mmHg 36%
    14:00 +29°C° 0 mm 4 mps 635 mmHg 36%
    15:00 +29°C° 0 mm 4 mps 634 mmHg 37%
    16:00 +27°C° 0 mm 3 mps 634 mmHg 40%
    17:00 +26°C° 0 mm 2 mps 633 mmHg 44%
    18:00 +25°C° 0 mm 2 mps 633 mmHg 47%
    19:00 +24°C° 0 mm 1 mps 633 mmHg 49%
    20:00 +23°C° 0 mm 1 mps 633 mmHg 50%
    21:00 +22°C° 0 mm 1 mps 633 mmHg 52%
    22:00 +22°C° 0 mm 1 mps 632 mmHg 51%
    23:00 +22°C° 0 mm 1 mps 632 mmHg 50%

    23 July, Tuesday

    Time Temperature Precipitation Wind Pressure Humidity
    00:00 +21°C° 0 mm 2 mps 632 mmHg 50%
    01:00 +21°C° 0 mm 1 mps 632 mmHg 53%
    02:00 +20°C° 0 mm 1 mps 631 mmHg 56%
    03:00 +19°C° 0 mm 1 mps 631 mmHg 59%
    04:00 +19°C° 0 mm 1 mps 631 mmHg 60%
    05:00 +19°C° 0 mm 1 mps 631 mmHg 61%
    06:00 +19°C° 0 mm 1 mps 632 mmHg 62%
    07:00 +20°C° 0 mm 2 mps 632 mmHg 59%
    08:00 +21°C° 0 mm 3 mps 633 mmHg 55%
    09:00 +22°C° 0 mm 3 mps 633 mmHg 51%
    10:00 +23°C° 0 mm 4 mps 633 mmHg 49%
    11:00 +25°C° 0 mm 4 mps 633 mmHg 46%
    12:00 +26°C° 0 mm 4 mps 633 mmHg 44%
    13:00 +26°C° 0 mm 4 mps 632 mmHg 45%
    14:00 +25°C° 0 mm 4 mps 632 mmHg 45%
    15:00 +25°C° 0 mm 4 mps 632 mmHg 46%
    16:00 +23°C° 0 mm 4 mps 631 mmHg 50%
    17:00 +22°C° 0 mm 3 mps 631 mmHg 53%
    18:00 +21°C° 0 mm 3 mps 630 mmHg 57%
    19:00 +20°C° 0 mm 2 mps 631 mmHg 59%
    20:00 +20°C° 0 mm 1 mps 631 mmHg 61%
    21:00 +19°C° 0 mm 1 mps 631 mmHg 63%
    22:00 +19°C° 0 mm 1 mps 630 mmHg 64%
    23:00 +18°C° 0 mm 1 mps 630 mmHg 65%
    Show more